EIN3309 EGHI-EIDW

Flight info

Callsign EIN3309
Flight time 0h 52m
Altitude 22000
Route PEPIS Y321 NUBRI N14 HEKXA Q63 OZZIL N80 ARPAK L9 NICXI M17 VATRY VATRY4L
Aircraft RJ85/M-SDFGIRWY/LB1

Departure

Time 2026-05-05 19:20
Airport Southampton Airport (EGHI)

Arrival

Time 2026-05-05 20:12
Airport Dublin Airport (EIDW)
Time Latitude Longitude Altitude Speed Heading
2026-05-05 18:46 50.94984 -1.36179 39 ft 0 kts 19°
2026-05-05 19:07 50.94980 -1.36181 39 ft 3 kts 19°
2026-05-05 19:07 50.94958 -1.36193 39 ft 2 kts 19°
2026-05-05 19:08 50.94937 -1.36209 39 ft 4 kts 48°
2026-05-05 19:08 50.94937 -1.36240 39 ft 4 kts 109°
2026-05-05 19:08 50.94941 -1.36259 39 ft 0 kts 109°
2026-05-05 19:10 50.94937 -1.36242 39 ft 5 kts 109°
2026-05-05 19:10 50.94920 -1.36165 39 ft 9 kts 109°
2026-05-05 19:11 50.94902 -1.36082 39 ft 7 kts 109°
2026-05-05 19:11 50.94870 -1.36038 39 ft 8 kts 191°
2026-05-05 19:11 50.94814 -1.36061 39 ft 10 kts 192°
2026-05-05 19:11 50.94738 -1.36105 39 ft 8 kts 186°
2026-05-05 19:12 50.94654 -1.36143 39 ft 12 kts 194°
2026-05-05 19:12 50.94595 -1.36105 39 ft 4 kts 142°
2026-05-05 19:12 50.94593 -1.36100 39 ft 0 kts 120°
2026-05-05 19:16 50.94589 -1.36088 39 ft 6 kts 117°
2026-05-05 19:16 50.94557 -1.35961 38 ft 15 kts 138°
2026-05-05 19:17 50.94456 -1.36003 37 ft 15 kts 207°
2026-05-05 19:17 50.94362 -1.36043 37 ft 14 kts 184°
2026-05-05 19:17 50.94300 -1.36056 38 ft 6 kts 298°
2026-05-05 19:17 50.94327 -1.36068 37 ft 0 kts 17°
2026-05-05 19:18 50.94360 -1.36051 37 ft 29 kts 18°
2026-05-05 19:19 50.94777 -1.35820 40 ft 97 kts 20°
2026-05-05 19:19 50.95362 -1.35493 92 ft 130 kts 17°
2026-05-05 19:20 50.95993 -1.35158 410 ft 135 kts 17°
2026-05-05 19:20 50.96863 -1.34733 1133 ft 125 kts 15°
2026-05-05 19:20 50.97742 -1.34344 1688 ft 134 kts 15°
2026-05-05 19:21 50.98613 -1.33978 2378 ft 128 kts 19°
2026-05-05 19:21 50.99458 -1.33425 2887 ft 131 kts 25°
2026-05-05 19:21 51.00290 -1.32802 3400 ft 137 kts 26°
2026-05-05 19:21 51.01209 -1.32080 3677 ft 161 kts 27°
2026-05-05 19:22 51.02304 -1.31195 3970 ft 190 kts 27°
2026-05-05 19:22 51.03553 -1.30179 4554 ft 212 kts 27°
2026-05-05 19:22 51.05005 -1.29375 5221 ft 231 kts 11°
2026-05-05 19:22 51.06646 -1.28930 5984 ft 246 kts 10°
2026-05-05 19:23 51.08377 -1.28437 6697 ft 263 kts 10°
2026-05-05 19:23 51.10184 -1.27895 7542 ft 266 kts 11°
2026-05-05 19:23 51.12017 -1.27301 8365 ft 271 kts 11°
2026-05-05 19:23 51.13868 -1.26652 9265 ft 275 kts 12°
2026-05-05 19:24 51.15745 -1.25949 10074 ft 280 kts 12°
2026-05-05 19:24 51.17653 -1.25219 10807 ft 284 kts 12°
2026-05-05 19:24 51.19573 -1.24506 11511 ft 288 kts 10°
2026-05-05 19:24 51.21571 -1.24124 12202 ft 291 kts
2026-05-05 19:25 51.23609 -1.23937 12716 ft 298 kts
2026-05-05 19:25 51.25714 -1.23783 12878 ft 302 kts
2026-05-05 19:25 51.27770 -1.23661 12913 ft 292 kts
2026-05-05 19:25 51.29806 -1.23546 12931 ft 292 kts
2026-05-05 19:26 51.31843 -1.23409 12936 ft 294 kts
2026-05-05 19:26 51.33870 -1.23573 12948 ft 293 kts 346°
2026-05-05 19:26 51.35845 -1.24501 13549 ft 296 kts 340°
2026-05-05 19:26 51.37806 -1.25583 14128 ft 299 kts 340°
2026-05-05 19:27 51.39782 -1.26763 14666 ft 304 kts 338°
2026-05-05 19:27 51.41766 -1.27998 15204 ft 307 kts 338°
2026-05-05 19:27 51.43770 -1.29249 15705 ft 310 kts 338°
2026-05-05 19:27 51.45790 -1.30502 16181 ft 314 kts 339°
2026-05-05 19:28 51.47834 -1.31775 16682 ft 317 kts 339°
2026-05-05 19:28 51.49871 -1.33020 17144 ft 320 kts 339°
2026-05-05 19:28 51.51849 -1.34776 17585 ft 323 kts 316°
2026-05-05 19:28 51.53070 -1.37723 18006 ft 325 kts 290°
2026-05-05 19:29 51.53734 -1.41212 18399 ft 328 kts 285°
2026-05-05 19:29 51.54345 -1.44745 18848 ft 328 kts 285°
2026-05-05 19:29 51.54960 -1.48265 19281 ft 328 kts 285°
2026-05-05 19:29 51.55595 -1.51770 19681 ft 328 kts 286°
2026-05-05 19:30 51.56267 -1.55286 20048 ft 330 kts 287°
2026-05-05 19:30 51.56977 -1.58790 20458 ft 329 kts 288°
2026-05-05 19:30 51.57703 -1.62277 20845 ft 329 kts 288°
2026-05-05 19:30 51.58389 -1.65797 21168 ft 330 kts 282°
2026-05-05 19:31 51.58799 -1.69443 21499 ft 331 kts 277°
2026-05-05 19:31 51.59090 -1.73126 21841 ft 332 kts 276°
2026-05-05 19:31 51.59347 -1.76821 22179 ft 333 kts 275°
2026-05-05 19:31 51.59583 -1.80489 22513 ft 333 kts 275°
2026-05-05 19:32 51.59814 -1.84206 22848 ft 334 kts 275°
2026-05-05 19:32 51.60053 -1.87926 23183 ft 335 kts 276°
2026-05-05 19:32 51.60311 -1.91657 23497 ft 336 kts 276°
2026-05-05 19:32 51.60576 -1.95397 23758 ft 338 kts 275°
2026-05-05 19:33 51.60837 -1.99158 23999 ft 339 kts 275°
2026-05-05 19:33 51.61093 -2.02944 24237 ft 340 kts 275°
2026-05-05 19:33 51.61348 -2.06737 24471 ft 342 kts 275°
2026-05-05 19:33 51.61615 -2.10544 24698 ft 343 kts 275°
2026-05-05 19:34 51.61878 -2.14367 24972 ft 343 kts 275°
2026-05-05 19:34 51.62139 -2.18130 25250 ft 342 kts 275°
2026-05-05 19:34 51.62407 -2.21932 25517 ft 342 kts 275°
2026-05-05 19:35 51.62950 -2.29540 26053 ft 341 kts 275°
2026-05-05 19:35 51.63225 -2.33341 26312 ft 341 kts 275°
2026-05-05 19:35 51.63482 -2.37128 26577 ft 340 kts 274°
2026-05-05 19:35 51.63729 -2.40923 26838 ft 340 kts 274°
2026-05-05 19:36 51.64136 -2.44676 27060 ft 342 kts 282°
2026-05-05 19:36 51.64791 -2.48359 27297 ft 342 kts 285°
2026-05-05 19:36 51.65522 -2.52007 27543 ft 342 kts 286°
2026-05-05 19:36 51.66283 -2.55642 27782 ft 342 kts 287°
2026-05-05 19:37 51.67045 -2.59265 28011 ft 341 kts 286°
2026-05-05 19:37 51.67796 -2.62891 28237 ft 341 kts 286°
2026-05-05 19:37 51.68534 -2.66518 28470 ft 341 kts 285°
2026-05-05 19:37 51.69254 -2.70150 28693 ft 340 kts 285°
2026-05-05 19:38 51.69958 -2.73736 28915 ft 340 kts 285°
2026-05-05 19:38 51.70670 -2.77373 29139 ft 339 kts 285°
2026-05-05 19:38 51.71382 -2.81013 29352 ft 339 kts 285°
2026-05-05 19:38 51.72091 -2.84637 29614 ft 339 kts 285°
2026-05-05 19:39 51.72802 -2.88262 29801 ft 339 kts 285°
2026-05-05 19:39 51.73510 -2.91879 30008 ft 339 kts 285°
2026-05-05 19:39 51.74205 -2.95520 30170 ft 339 kts 286°
2026-05-05 19:39 51.74897 -2.99153 30323 ft 339 kts 286°
2026-05-05 19:40 51.75601 -3.02796 30442 ft 339 kts 286°
2026-05-05 19:40 51.76310 -3.06425 30337 ft 340 kts 286°
2026-05-05 19:40 51.77019 -3.10057 30142 ft 341 kts 287°
2026-05-05 19:41 51.78429 -3.17511 30062 ft 352 kts 288°
2026-05-05 19:41 51.79900 -3.25181 30044 ft 362 kts 288°
2026-05-05 19:42 51.81250 -3.33126 30042 ft 371 kts 281°
2026-05-05 19:42 51.81890 -3.41523 30021 ft 381 kts 276°
2026-05-05 19:43 51.82309 -3.50096 30016 ft 389 kts 276°
2026-05-05 19:43 51.83040 -3.58805 30017 ft 393 kts 282°
2026-05-05 19:44 51.83971 -3.66009 30020 ft 395 kts 282°
2026-05-05 19:44 51.84557 -3.70301 30363 ft 384 kts 284°
2026-05-05 19:44 51.85138 -3.74498 30589 ft 382 kts 283°
2026-05-05 19:44 51.85696 -3.78660 30969 ft 375 kts 283°
2026-05-05 19:45 51.86219 -3.82751 31334 ft 368 kts 284°
2026-05-05 19:45 51.86729 -3.86763 31702 ft 361 kts 284°
2026-05-05 19:45 51.87241 -3.90718 31905 ft 359 kts 282°
2026-05-05 19:46 51.88244 -3.98673 32019 ft 363 kts 282°
2026-05-05 19:46 51.89269 -4.06757 32018 ft 370 kts 282°
2026-05-05 19:47 51.90317 -4.14986 32025 ft 377 kts 282°
2026-05-05 19:47 51.91354 -4.23387 32030 ft 383 kts 283°
2026-05-05 19:48 51.92412 -4.31858 32037 ft 389 kts 282°
2026-05-05 19:48 51.93465 -4.40423 32012 ft 376 kts 282°
2026-05-05 19:49 51.94474 -4.48621 32011 ft 373 kts 281°
2026-05-05 19:49 51.95070 -4.52731 32018 ft 376 kts 292°
2026-05-05 19:49 51.96435 -4.56324 32055 ft 378 kts 309°
2026-05-05 19:50 52.00074 -4.62579 32043 ft 384 kts 313°
2026-05-05 19:50 52.03864 -4.68755 32042 ft 387 kts 314°
2026-05-05 19:51 52.07790 -4.74788 32038 ft 389 kts 315°
2026-05-05 19:51 52.11732 -4.80831 32015 ft 390 kts 315°
2026-05-05 19:51 52.13707 -4.83916 31678 ft 396 kts 314°
2026-05-05 19:52 52.15472 -4.86691 31342 ft 397 kts 314°
2026-05-05 19:52 52.17455 -4.89811 30967 ft 395 kts 314°
2026-05-05 19:52 52.19432 -4.92925 30609 ft 396 kts 314°
2026-05-05 19:52 52.21420 -4.96045 30228 ft 397 kts 314°
2026-05-05 19:53 52.23395 -4.99147 29805 ft 397 kts 314°
2026-05-05 19:53 52.25381 -5.02269 29338 ft 397 kts 314°
2026-05-05 19:53 52.27369 -5.05402 28897 ft 398 kts 314°
2026-05-05 19:53 52.29338 -5.08514 28464 ft 399 kts 314°
2026-05-05 19:54 52.31334 -5.11678 28033 ft 400 kts 314°
2026-05-05 19:54 52.33329 -5.14851 27608 ft 401 kts 314°
2026-05-05 19:54 52.35344 -5.18024 27203 ft 402 kts 315°
2026-05-05 19:54 52.37358 -5.21207 26813 ft 402 kts 314°
2026-05-05 19:55 52.39365 -5.24413 26430 ft 403 kts 314°
2026-05-05 19:55 52.41376 -5.27591 26066 ft 404 kts 314°
2026-05-05 19:55 52.43396 -5.30786 25695 ft 404 kts 314°
2026-05-05 19:55 52.45410 -5.33997 25339 ft 405 kts 314°
2026-05-05 19:56 52.47433 -5.37215 24991 ft 405 kts 316°
2026-05-05 19:56 52.49777 -5.39796 24539 ft 412 kts 334°
2026-05-05 19:56 52.52463 -5.41440 23829 ft 407 kts 339°
2026-05-05 19:56 52.55146 -5.42930 23011 ft 406 kts 339°
2026-05-05 19:57 52.57808 -5.44435 22171 ft 403 kts 339°
2026-05-05 19:57 52.60445 -5.45981 21352 ft 401 kts 338°
2026-05-05 19:57 52.63049 -5.47580 20547 ft 398 kts 338°
2026-05-05 19:57 52.65620 -5.49193 19972 ft 390 kts 337°
2026-05-05 19:58 52.68111 -5.50782 19514 ft 379 kts 336°
2026-05-05 19:58 52.70545 -5.52370 18904 ft 374 kts 337°
2026-05-05 19:58 52.72954 -5.53919 18257 ft 370 kts 337°
2026-05-05 19:58 52.75338 -5.55459 17545 ft 366 kts 337°
2026-05-05 19:59 52.77664 -5.56966 16857 ft 362 kts 337°
2026-05-05 19:59 52.79992 -5.58488 16175 ft 358 kts 337°
2026-05-05 19:59 52.82306 -5.59984 15496 ft 355 kts 338°
2026-05-05 19:59 52.84626 -5.61461 14753 ft 363 kts 338°
2026-05-05 20:00 52.86979 -5.62962 14011 ft 360 kts 338°
2026-05-05 20:00 52.89339 -5.64474 12885 ft 365 kts 338°
2026-05-05 20:00 52.91713 -5.66003 11820 ft 367 kts 338°
2026-05-05 20:00 52.94104 -5.67559 10737 ft 369 kts 338°
2026-05-05 20:01 52.96497 -5.69131 9580 ft 370 kts 338°
2026-05-05 20:01 52.98885 -5.70716 8404 ft 358 kts 338°
2026-05-05 20:01 53.00986 -5.72091 7048 ft 305 kts 339°
2026-05-05 20:01 53.02910 -5.73334 7035 ft 298 kts 338°
2026-05-05 20:02 53.04780 -5.74568 7026 ft 280 kts 338°
2026-05-05 20:02 53.06533 -5.75725 6964 ft 264 kts 338°
2026-05-05 20:02 53.08224 -5.76821 6647 ft 247 kts 339°
2026-05-05 20:02 53.09812 -5.77849 6417 ft 243 kts 338°
2026-05-05 20:03 53.11367 -5.78872 6199 ft 237 kts 338°
2026-05-05 20:03 53.12887 -5.79875 5992 ft 233 kts 338°
2026-05-05 20:03 53.14387 -5.80864 5795 ft 231 kts 339°
2026-05-05 20:03 53.15900 -5.81740 5607 ft 229 kts 341°
2026-05-05 20:04 53.17417 -5.82542 5422 ft 228 kts 342°
2026-05-05 20:04 53.18926 -5.83317 5231 ft 226 kts 342°
2026-05-05 20:04 53.20425 -5.84076 5058 ft 224 kts 343°
2026-05-05 20:04 53.21897 -5.84827 4885 ft 223 kts 343°
2026-05-05 20:05 53.23372 -5.85591 4701 ft 221 kts 342°
2026-05-05 20:05 53.24843 -5.86361 4515 ft 221 kts 343°
2026-05-05 20:05 53.26308 -5.87129 4327 ft 221 kts 342°
2026-05-05 20:05 53.27770 -5.87897 4145 ft 220 kts 343°
2026-05-05 20:06 53.29219 -5.88668 3957 ft 218 kts 343°
2026-05-05 20:06 53.30660 -5.89443 3804 ft 217 kts 342°
2026-05-05 20:06 53.32093 -5.90219 3650 ft 216 kts 343°
2026-05-05 20:06 53.33523 -5.90985 3515 ft 216 kts 343°
2026-05-05 20:07 53.34951 -5.91731 3404 ft 214 kts 343°
2026-05-05 20:07 53.36371 -5.92480 3302 ft 213 kts 343°
2026-05-05 20:07 53.37789 -5.93226 3199 ft 213 kts 343°
2026-05-05 20:07 53.39167 -5.94066 3104 ft 214 kts 330°
2026-05-05 20:08 53.40084 -5.96010 3097 ft 214 kts 290°
2026-05-05 20:08 53.40425 -5.98386 3113 ft 204 kts 287°
2026-05-05 20:08 53.40709 -6.00643 3151 ft 199 kts 283°
2026-05-05 20:08 53.40869 -6.02972 2963 ft 202 kts 279°
2026-05-05 20:09 53.40977 -6.05233 2643 ft 186 kts 279°
2026-05-05 20:09 53.41076 -6.07274 2382 ft 164 kts 278°
2026-05-05 20:09 53.41171 -6.09155 2165 ft 161 kts 279°
2026-05-05 20:09 53.41266 -6.10976 1948 ft 150 kts 279°
2026-05-05 20:10 53.41351 -6.12615 1761 ft 133 kts 279°
2026-05-05 20:10 53.41433 -6.14135 1556 ft 128 kts 279°
2026-05-05 20:10 53.41518 -6.15610 1378 ft 126 kts 279°
2026-05-05 20:10 53.41599 -6.17086 1211 ft 128 kts 278°
2026-05-05 20:11 53.41670 -6.18583 1028 ft 130 kts 276°
2026-05-05 20:11 53.41749 -6.20113 860 ft 135 kts 277°
2026-05-05 20:11 53.41844 -6.21705 675 ft 140 kts 275°
2026-05-05 20:11 53.41927 -6.23308 481 ft 136 kts 275°
2026-05-05 20:12 53.42013 -6.24868 282 ft 134 kts 275°
2026-05-05 20:12 53.42095 -6.26325 212 ft 111 kts 275°
2026-05-05 20:12 53.42152 -6.27322 212 ft 61 kts 276°
2026-05-05 20:12 53.42205 -6.27860 211 ft 40 kts 288°
2026-05-05 20:13 53.42341 -6.28144 211 ft 24 kts 358°
2026-05-05 20:13 53.42361 -6.28035 211 ft 13 kts 95°
2026-05-05 20:13 53.42347 -6.27811 218 ft 26 kts 96°
2026-05-05 20:13 53.42331 -6.27477 210 ft 30 kts 95°
2026-05-05 20:14 53.42320 -6.27114 214 ft 33 kts 96°
2026-05-05 20:14 53.42293 -6.26720 211 ft 36 kts 99°
2026-05-05 20:14 53.42266 -6.26309 211 ft 35 kts 96°
2026-05-05 20:14 53.42287 -6.25932 213 ft 32 kts 55°
2026-05-05 20:15 53.42425 -6.25683 210 ft 27 kts 49°
2026-05-05 20:15 53.42545 -6.25485 210 ft 22 kts 44°
2026-05-05 20:15 53.42646 -6.25311 211 ft 19 kts 46°
2026-05-05 20:15 53.42708 -6.25204 215 ft 8 kts 46°
2026-05-05 20:16 53.42708 -6.25110 216 ft 10 kts 139°
2026-05-05 20:16 53.42654 -6.25072 212 ft 9 kts 159°
2026-05-05 20:16 53.42579 -6.25013 215 ft 17 kts 150°
2026-05-05 20:16 53.42559 -6.24865 214 ft 13 kts 113°
2026-05-05 20:17 53.42547 -6.24784 211 ft 5 kts 78°
2026-05-05 20:17 53.42555 -6.24746 215 ft 2 kts 70°
2026-05-05 20:17 53.42558 -6.24730 212 ft 1 kts 70°
2026-05-05 20:17 53.42563 -6.24706 217 ft 3 kts 71°
2026-05-05 20:18 53.42568 -6.24681 216 ft 0 kts 71°